Hourly Weather Lezhe

Today, 14 July, Tuesday

Time Temperature Precipitation Wind Pressure Humidity
00:00 +16°C° 0 mm 5 mps 736 mmHg 63%
01:00 +16°C° 0 mm 5 mps 736 mmHg 65%
02:00 +15°C° 0 mm 5 mps 736 mmHg 67%
03:00 +14°C° 0 mm 5 mps 736 mmHg 68%
04:00 +14°C° 0 mm 4 mps 735 mmHg 70%
05:00 +17°C° 0 mm 4 mps 735 mmHg 65%
06:00 +18°C° 0 mm 4 mps 735 mmHg 60%
07:00 +20°C° 0 mm 4 mps 736 mmHg 55%
08:00 +22°C° 0 mm 4 mps 736 mmHg 50%
09:00 +25°C° 0 mm 3 mps 736 mmHg 46%
10:00 +27°C° 0 mm 3 mps 736 mmHg 42%
11:00 +28°C° 0 mm 3 mps 736 mmHg 41%
12:00 +29°C° 0 mm 3 mps 735 mmHg 39%
13:00 +30°C° 0 mm 3 mps 735 mmHg 39%
14:00 +29°C° 0 mm 3 mps 735 mmHg 40%
15:00 +29°C° 0 mm 3 mps 735 mmHg 41%
16:00 +29°C° 0 mm 3 mps 735 mmHg 42%
17:00 +27°C° 0 mm 2 mps 735 mmHg 49%
18:00 +25°C° 0 mm 2 mps 735 mmHg 55%
19:00 +23°C° 0 mm 1 mps 735 mmHg 62%
20:00 +22°C° 0 mm 1 mps 735 mmHg 64%
21:00 +21°C° 0 mm 1 mps 735 mmHg 67%
22:00 +20°C° 0 mm 1 mps 736 mmHg 70%
23:00 +20°C° 0 mm 1 mps 736 mmHg 71%

Tomorrow, 15 July, Wednesday

Time Temperature Precipitation Wind Pressure Humidity
00:00 +20°C° 0 mm 1 mps 736 mmHg 72%
01:00 +20°C° 0 mm 1 mps 736 mmHg 73%
02:00 +19°C° 0 mm 1 mps 736 mmHg 74%
03:00 +19°C° 0 mm 1 mps 736 mmHg 75%
04:00 +19°C° 0 mm 1 mps 736 mmHg 76%
05:00 +21°C° 0 mm 1 mps 736 mmHg 70%
06:00 +22°C° 0 mm 1 mps 736 mmHg 65%
07:00 +24°C° 0 mm 1 mps 736 mmHg 59%
08:00 +26°C° 0 mm 1 mps 737 mmHg 52%
09:00 +27°C° 0 mm 2 mps 737 mmHg 44%
10:00 +28°C° 0 mm 2 mps 737 mmHg 36%
11:00 +29°C° 0 mm 3 mps 737 mmHg 36%
12:00 +29°C° 0 mm 3 mps 737 mmHg 35%
13:00 +30°C° 0 mm 4 mps 737 mmHg 35%
14:00 +29°C° 0 mm 3 mps 736 mmHg 36%
15:00 +29°C° 0 mm 3 mps 736 mmHg 38%
16:00 +28°C° 0 mm 3 mps 736 mmHg 40%
17:00 +27°C° 0 mm 2 mps 736 mmHg 46%
18:00 +25°C° 0 mm 2 mps 736 mmHg 52%
19:00 +23°C° 0 mm 1 mps 736 mmHg 58%
20:00 +22°C° 0 mm 1 mps 736 mmHg 59%
21:00 +22°C° 0 mm 1 mps 737 mmHg 59%
22:00 +21°C° 0 mm 1 mps 737 mmHg 60%
23:00 +21°C° 0 mm 1 mps 737 mmHg 59%

Day after tomorrow, 16 July, Thursday

Time Temperature Precipitation Wind Pressure Humidity
00:00 +21°C° 0 mm 1 mps 737 mmHg 59%
01:00 +21°C° 0 mm 1 mps 736 mmHg 59%
02:00 +21°C° 0.1 mm 1 mps 736 mmHg 61%
03:00 +21°C° 0.1 mm 1 mps 736 mmHg 64%
04:00 +19°C° 0.1 mm 2 mps 736 mmHg 66%
05:00 +22°C° 0 mm 1 mps 736 mmHg 63%
06:00 +23°C° 0 mm 1 mps 736 mmHg 59%
07:00 +25°C° 0 mm 1 mps 736 mmHg 55%
08:00 +26°C° 0 mm 1 mps 736 mmHg 51%
09:00 +27°C° 0 mm 2 mps 736 mmHg 46%
10:00 +29°C° 0 mm 2 mps 736 mmHg 41%
11:00 +29°C° 0 mm 3 mps 736 mmHg 41%
12:00 +29°C° 0 mm 4 mps 736 mmHg 41%
13:00 +30°C° 0 mm 4 mps 735 mmHg 41%
14:00 +29°C° 0 mm 4 mps 735 mmHg 42%
15:00 +29°C° 0 mm 3 mps 735 mmHg 43%
16:00 +29°C° 0 mm 3 mps 735 mmHg 44%
17:00 +27°C° 0 mm 2 mps 735 mmHg 52%
18:00 +25°C° 0 mm 2 mps 735 mmHg 59%
19:00 +23°C° 0 mm 1 mps 735 mmHg 66%
20:00 +22°C° 0 mm 1 mps 735 mmHg 68%
21:00 +21°C° 0 mm 1 mps 735 mmHg 69%
22:00 +21°C° 0 mm 1 mps 735 mmHg 71%
23:00 +20°C° 0 mm 1 mps 735 mmHg 71%

17 July, Friday

Time Temperature Precipitation Wind Pressure Humidity
00:00 +20°C° 0 mm 1 mps 735 mmHg 72%
01:00 +19°C° 0 mm 2 mps 735 mmHg 73%
02:00 +19°C° 0 mm 2 mps 734 mmHg 74%
03:00 +18°C° 0 mm 2 mps 734 mmHg 75%
04:00 +18°C° 0 mm 2 mps 734 mmHg 76%
05:00 +20°C° 0 mm 2 mps 734 mmHg 71%
06:00 +23°C° 0 mm 2 mps 734 mmHg 65%
07:00 +25°C° 0 mm 1 mps 734 mmHg 59%
08:00 +27°C° 0.1 mm 2 mps 734 mmHg 54%
09:00 +28°C° 0.1 mm 2 mps 734 mmHg 49%
10:00 +30°C° 0.1 mm 2 mps 734 mmHg 43%
11:00 +30°C° 0.1 mm 2 mps 734 mmHg 43%
12:00 +30°C° 0.1 mm 2 mps 733 mmHg 42%
13:00 +31°C° 0.1 mm 3 mps 733 mmHg 41%
14:00 +30°C° 0.1 mm 3 mps 733 mmHg 43%
15:00 +30°C° 0.1 mm 3 mps 733 mmHg 45%
16:00 +29°C° 0.1 mm 3 mps 733 mmHg 46%
17:00 +27°C° 0.1 mm 2 mps 733 mmHg 54%
18:00 +25°C° 0.1 mm 1 mps 733 mmHg 62%
19:00 +23°C° 0.1 mm 1 mps 733 mmHg 69%
20:00 +23°C° 0 mm 1 mps 733 mmHg 72%
21:00 +22°C° 0 mm 1 mps 733 mmHg 76%
22:00 +21°C° 0 mm 1 mps 733 mmHg 79%
23:00 +20°C° 0 mm 1 mps 733 mmHg 80%

18 July, Saturday

Time Temperature Precipitation Wind Pressure Humidity
00:00 +20°C° 0 mm 1 mps 733 mmHg 81%
01:00 +19°C° 0 mm 2 mps 733 mmHg 83%
02:00 +18°C° 0 mm 2 mps 733 mmHg 83%
03:00 +18°C° 0 mm 2 mps 733 mmHg 84%
04:00 +18°C° 0 mm 2 mps 733 mmHg 85%
05:00 +19°C° 0 mm 2 mps 733 mmHg 79%
06:00 +21°C° 0 mm 2 mps 733 mmHg 73%
07:00 +24°C° 0 mm 3 mps 733 mmHg 67%
08:00 +25°C° 0.1 mm 3 mps 734 mmHg 61%
09:00 +27°C° 0.1 mm 2 mps 734 mmHg 56%
10:00 +28°C° 0.1 mm 2 mps 734 mmHg 51%
11:00 +29°C° 0.2 mm 3 mps 734 mmHg 49%
12:00 +30°C° 0.2 mm 3 mps 734 mmHg 48%
13:00 +30°C° 0.2 mm 3 mps 733 mmHg 46%
14:00 +30°C° 0.4 mm 3 mps 733 mmHg 48%
15:00 +29°C° 0.4 mm 3 mps 733 mmHg 49%
16:00 +29°C° 0.4 mm 2 mps 733 mmHg 51%
17:00 +27°C° 0.2 mm 2 mps 733 mmHg 58%
18:00 +25°C° 0.2 mm 2 mps 733 mmHg 65%
19:00 +23°C° 0.2 mm 2 mps 733 mmHg 73%
20:00 +21°C° 0.1 mm 2 mps 734 mmHg 76%
21:00 +20°C° 0.1 mm 2 mps 734 mmHg 79%
22:00 +19°C° 0.1 mm 2 mps 734 mmHg 82%
23:00 +19°C° 0.1 mm 2 mps 734 mmHg 83%

19 July, Sunday

Time Temperature Precipitation Wind Pressure Humidity
00:00 +18°C° 0.1 mm 2 mps 734 mmHg 84%
01:00 +18°C° 0.1 mm 2 mps 734 mmHg 85%
02:00 +18°C° 0.1 mm 2 mps 735 mmHg 85%
03:00 +18°C° 0.1 mm 2 mps 735 mmHg 84%
04:00 +18°C° 0.1 mm 2 mps 735 mmHg 84%
05:00 +19°C° 0 mm 2 mps 735 mmHg 79%
06:00 +21°C° 0 mm 2 mps 735 mmHg 74%
07:00 +23°C° 0 mm 2 mps 735 mmHg 69%
08:00 +25°C° 0 mm 2 mps 736 mmHg 62%
09:00 +27°C° 0 mm 3 mps 736 mmHg 56%
10:00 +28°C° 0 mm 3 mps 736 mmHg 49%
11:00 +29°C° 0 mm 3 mps 736 mmHg 46%
12:00 +30°C° 0 mm 3 mps 736 mmHg 43%
13:00 +31°C° 0 mm 3 mps 736 mmHg 40%
14:00 +32°C° 0 mm 4 mps 736 mmHg 42%
15:00 +32°C° 0 mm 4 mps 736 mmHg 43%
16:00 +30°C° 0 mm 4 mps 736 mmHg 45%
17:00 +28°C° 0 mm 3 mps 736 mmHg 51%
18:00 +27°C° 0 mm 3 mps 736 mmHg 58%
19:00 +25°C° 0 mm 3 mps 736 mmHg 64%
20:00 +24°C° 0 mm 2 mps 737 mmHg 66%
21:00 +23°C° 0 mm 2 mps 737 mmHg 67%
22:00 +21°C° 0 mm 2 mps 737 mmHg 69%
23:00 +21°C° 0 mm 2 mps 737 mmHg 70%
Show more